TimeEST,TemperatureF,Dew PointF,Humidity,Sea Level PressureIn,VisibilityMPH,Wind Direction,Wind SpeedMPH,Gust SpeedMPH,PrecipitationIn,Events,Conditions,WindDirDegrees,DateUTC
12:15 AM,24.6,16.9,72,30.44,10.0,Calm,Calm,-,N/A,,Clear,0,2013-02-10 05:15:00
12:35 AM,23.2,17.1,77,30.44,10.0,Calm,Calm,-,N/A,,Clear,0,2013-02-10 05:35:00
12:55 AM,22.6,17.6,81,30.44,10.0,Calm,Calm,-,N/A,,Clear,0,2013-02-10 05:55:00
1:15 AM,22.1,16.9,80,30.44,10.0,Calm,Calm,-,N/A,,Clear,0,2013-02-10 06:15:00
1:35 AM,21.7,17.8,85,30.45,10.0,Calm,Calm,-,N/A,,Clear,0,2013-02-10 06:35:00
1:55 AM,22.1,17.6,83,30.46,10.0,Calm,Calm,-,N/A,,Clear,0,2013-02-10 06:55:00
2:15 AM,22.5,18.1,83,30.46,10.0,Calm,Calm,-,N/A,,Clear,0,2013-02-10 07:15:00
2:35 AM,20.5,17.6,89,30.46,10.0,Calm,Calm,-,N/A,,Clear,0,2013-02-10 07:35:00
2:55 AM,21.7,17.4,83,30.46,10.0,Calm,Calm,-,N/A,,Clear,0,2013-02-10 07:55:00
3:15 AM,19.4,17.6,93,30.46,10.0,Calm,Calm,-,N/A,,Clear,0,2013-02-10 08:15:00
3:35 AM,22.3,18.0,83,30.46,10.0,Calm,Calm,-,N/A,,Clear,0,2013-02-10 08:35:00
3:55 AM,19.6,17.2,91,30.46,10.0,Calm,Calm,-,N/A,,Clear,0,2013-02-10 08:55:00
4:15 AM,18.9,16.9,92,30.46,10.0,Calm,Calm,-,N/A,,Clear,0,2013-02-10 09:15:00
4:35 AM,19.2,17.6,93,30.47,10.0,Calm,Calm,-,N/A,,Clear,0,2013-02-10 09:35:00
4:55 AM,18.5,16.5,92,30.48,10.0,Calm,Calm,-,N/A,,Clear,0,2013-02-10 09:55:00
5:15 AM,18.7,16.7,92,30.47,10.0,Calm,Calm,-,N/A,,Clear,0,2013-02-10 10:15:00
5:35 AM,18.5,16.7,93,30.48,10.0,Calm,Calm,-,N/A,,Clear,0,2013-02-10 10:35:00
5:55 AM,18.1,16.2,92,30.48,10.0,Calm,Calm,-,N/A,,Clear,0,2013-02-10 10:55:00
6:15 AM,17.2,15.8,94,30.49,10.0,Calm,Calm,-,N/A,,Clear,0,2013-02-10 11:15:00
6:35 AM,18.0,16.3,93,30.50,10.0,Calm,Calm,-,N/A,,Clear,0,2013-02-10 11:35:00
6:55 AM,17.6,15.1,90,30.50,10.0,NW,3.5,-,N/A,,Clear,310,2013-02-10 11:55:00
7:15 AM,18.0,15.6,91,30.50,10.0,WNW,3.5,-,N/A,,Clear,290,2013-02-10 12:15:00
7:35 AM,18.3,16.7,93,30.51,10.0,NW,3.5,-,N/A,,Clear,320,2013-02-10 12:35:00
7:55 AM,20.5,18.7,93,30.52,10.0,WNW,3.5,-,N/A,,Clear,300,2013-02-10 12:55:00
8:15 AM,24.8,21.4,87,30.53,10.0,WNW,3.5,-,N/A,,Clear,290,2013-02-10 13:15:00
8:35 AM,27.0,21.7,81,30.53,10.0,Calm,Calm,-,N/A,,Clear,0,2013-02-10 13:35:00
8:55 AM,28.2,22.6,80,30.54,10.0,Calm,Calm,-,N/A,,Clear,0,2013-02-10 13:55:00
9:15 AM,30.0,22.5,73,30.53,10.0,Calm,Calm,-,N/A,,Clear,0,2013-02-10 14:15:00
9:35 AM,32.0,22.3,67,30.53,10.0,Calm,Calm,-,N/A,,Clear,0,2013-02-10 14:35:00
9:55 AM,33.1,19.9,59,30.54,10.0,SSW,3.5,-,N/A,,Clear,200,2013-02-10 14:55:00
10:15 AM,35.1,20.1,55,30.54,10.0,SSE,4.6,-,N/A,,Clear,160,2013-02-10 15:15:00
10:35 AM,35.2,18.7,51,30.53,10.0,Calm,Calm,-,N/A,,Clear,0,2013-02-10 15:35:00
10:55 AM,36.5,19.0,49,30.53,10.0,SE,6.9,-,N/A,,Clear,140,2013-02-10 15:55:00
11:15 AM,36.7,18.7,48,30.52,10.0,SSE,4.6,-,N/A,,Clear,150,2013-02-10 16:15:00
11:35 AM,37.4,18.0,45,30.51,10.0,South,4.6,-,N/A,,Clear,190,2013-02-10 16:35:00
11:55 AM,38.3,17.8,44,30.49,10.0,South,5.8,-,N/A,,Clear,170,2013-02-10 16:55:00
12:15 PM,38.5,18.7,45,30.49,10.0,SSW,4.6,-,N/A,,Clear,210,2013-02-10 17:15:00
12:35 PM,40.3,15.3,36,30.48,10.0,SSW,6.9,-,N/A,,Clear,210,2013-02-10 17:35:00
12:55 PM,41.4,15.1,35,30.47,10.0,South,3.5,-,N/A,,Clear,170,2013-02-10 17:55:00
1:15 PM,42.8,16.0,34,30.46,10.0,South,10.4,-,N/A,,Clear,180,2013-02-10 18:15:00
1:35 PM,42.8,16.0,34,30.44,10.0,South,6.9,-,N/A,,Clear,170,2013-02-10 18:35:00
1:55 PM,43.7,17.1,34,30.43,10.0,South,4.6,-,N/A,,Clear,170,2013-02-10 18:55:00
2:15 PM,44.6,16.0,32,30.42,10.0,SSW,6.9,-,N/A,,Clear,200,2013-02-10 19:15:00
2:35 PM,45.5,16.3,31,30.41,10.0,SSE,6.9,-,N/A,,Clear,160,2013-02-10 19:35:00
2:55 PM,45.9,16.9,31,30.40,10.0,SSE,9.2,-,N/A,,Clear,160,2013-02-10 19:55:00
3:15 PM,47.1,17.6,31,30.40,10.0,South,6.9,-,N/A,,Clear,180,2013-02-10 20:15:00
3:35 PM,45.9,17.8,33,30.39,10.0,SSE,8.1,-,N/A,,Clear,160,2013-02-10 20:35:00
3:55 PM,45.5,16.7,32,30.38,10.0,SSE,6.9,-,N/A,,Clear,160,2013-02-10 20:55:00
4:15 PM,45.3,18.3,34,30.37,10.0,SE,4.6,-,N/A,,Clear,130,2013-02-10 21:15:00
4:35 PM,45.5,19.6,36,30.38,10.0,SE,4.6,-,N/A,,Clear,140,2013-02-10 21:35:00
4:55 PM,44.6,18.9,36,30.38,10.0,SE,4.6,-,N/A,,Clear,140,2013-02-10 21:55:00
5:15 PM,44.2,18.9,36,30.36,10.0,SE,4.6,-,N/A,,Clear,140,2013-02-10 22:15:00
5:35 PM,44.4,18.3,35,30.37,10.0,SSE,5.8,-,N/A,,Clear,150,2013-02-10 22:35:00
5:55 PM,43.3,18.5,37,30.38,10.0,SSE,4.6,-,N/A,,Clear,150,2013-02-10 22:55:00
6:15 PM,42.8,18.7,38,30.37,10.0,SSE,4.6,-,N/A,,Clear,150,2013-02-10 23:15:00
6:35 PM,43.2,19.2,38,30.37,10.0,SSE,3.5,-,N/A,,Clear,150,2013-02-10 23:35:00
6:55 PM,43.0,18.9,38,30.37,10.0,SE,3.5,-,N/A,,Clear,140,2013-02-10 23:55:00
7:15 PM,41.4,23.9,50,30.37,10.0,East,4.6,-,N/A,,Clear,80,2013-02-11 00:15:00
7:35 PM,40.6,24.6,53,30.36,10.0,East,4.6,-,N/A,,Clear,90,2013-02-11 00:35:00
7:55 PM,40.1,24.8,54,30.37,10.0,East,3.5,-,N/A,,Clear,90,2013-02-11 00:55:00
8:15 PM,40.1,25.0,55,30.37,10.0,East,3.5,-,N/A,,Clear,90,2013-02-11 01:15:00
8:35 PM,39.6,25.5,57,30.38,10.0,Calm,Calm,-,N/A,,Clear,0,2013-02-11 01:35:00
8:55 PM,38.7,25.9,60,30.36,10.0,ESE,5.8,-,N/A,,Clear,110,2013-02-11 01:55:00
9:15 PM,39.2,26.4,60,30.36,10.0,ESE,4.6,-,N/A,,Clear,120,2013-02-11 02:15:00
9:35 PM,39.0,27.1,62,30.35,10.0,ESE,5.8,-,N/A,,Clear,120,2013-02-11 02:35:00
9:55 PM,39.2,26.6,61,30.33,10.0,SE,6.9,-,N/A,,Clear,130,2013-02-11 02:55:00
10:15 PM,39.2,27.0,62,30.32,10.0,SE,5.8,-,N/A,,Clear,140,2013-02-11 03:15:00
10:35 PM,39.0,27.3,63,30.32,10.0,SE,4.6,-,N/A,,Clear,140,2013-02-11 03:35:00
10:55 PM,38.8,27.0,62,30.32,10.0,SE,4.6,-,N/A,,Clear,140,2013-02-11 03:55:00
11:15 PM,39.2,27.1,62,30.32,10.0,SE,5.8,-,N/A,,Mostly Cloudy,140,2013-02-11 04:15:00
11:35 PM,40.1,27.5,61,30.30,10.0,SE,4.6,-,N/A,,Overcast,140,2013-02-11 04:35:00
11:55 PM,40.3,28.4,63,30.29,10.0,SSE,4.6,-,N/A,,Overcast,150,2013-02-11 04:55:00